Location: Unspecified
(48.2082°N, 0.0000°E)
Time: 22:00:26
(UTC+00:00)

Transit 4A - Pass Details

Date: 17 June 2019
Orbit: 862 x 982 km, 66.8° (Epoch: 19 July)

Event Time Altitude Azimuth Distance (km) Brightness Sun altitude
Rises 17:12:18 0° 325° (NW) 3,697 11.6 25.1°
Reaches altitude 10° 17:14:56 10° 329° (NNW) 2,743 11.0 24.7°
Maximum altitude 17:21:19 62° 50° (NE) 1,090 8.4 23.7°
Drops below altitude 10° 17:27:32 10° 131° (SE) 2,679 9.9 22.6°
Sets 17:30:05 0° 135° (SE) 3,605 10.5 22.2°
